[[{"header":{"parameterUnit":"m.s-1","parameterCategory":1,"la1":30.2991,"la2":30.254,"lo1":-89.0895,"lo2":-89.0444,"dx":0.0017,"dy":0.0017,"nx":28,"ny":28,"refTime":"2022-11-07T09:00:00:Z","depth":0,"parameterNumber":2,"parameterNumberName":"U-component_of_WINDS"},"data":[0,0,0,0,0,0,0,0,0,0,0,0,0,0,0,0,0,0,0,0,0,0,0,0,0,0,0,0,0,0,0,0,0,0,0,0,0,0,0,0,0,0,0,0,0,0,0,0,0,0,0,0,0,0,0,0,0,0,-2.5012,-2.5014,0,-2.5158,-2.516,-2.5161,-2.5199,-2.5198,-2.5197,-2.5196,-2.5344,-2.5349,-2.5353,0,0,0,0,0,0,0,0,0,0,0,0,0,-2.4765,-2.4769,-2.5012,-2.5014,-2.5016,-2.5158,-2.516,-2.5162,-2.5199,-2.5198,-2.5197,-2.5196,-2.5343,-2.5348,-2.5354,0,0,0,0,0,0,0,0,0,0,0,0,0,-2.4888,-2.4771,-2.5012,-2.5051,-2.5056,-2.5157,-2.516,-2.5162,-2.5199,-2.5198,-2.5197,-2.5195,-2.5341,-2.5348,-2.5355,-2.5426,0,0,-2.5377,-2.538,0,0,0,0,0,0,0,0,-2.4881,-2.4897,-2.5044,-2.5049,-2.5055,-2.5159,-2.5127,-2.525,-2.52,-2.5145,-2.5196,-2.5195,-2.5283,-2.5295,-2.5325,-2.5433,-2.5439,-2.5377,-2.5381,-2.5385,-2.5387,0,0,0,0,0,0,0,-2.4872,-2.4891,-2.507,-2.5046,-2.5053,-2.5062,-2.5078,-2.515,-2.522,-2.515,-2.5153,-2.517,-2.5286,-2.5318,-2.5329,-2.5441,-2.5377,-2.5383,-2.5388,-2.5391,-2.5617,-2.5618,0,0,0,0,0,0,-2.4857,-2.4883,-2.5065,-2.5074,-2.4963,-2.5067,-2.5085,-2.5127,-2.5219,-2.5232,-2.5171,-2.5171,-2.5307,-2.5321,-2.5335,-2.5427,-2.5385,-2.5391,-2.5395,-2.5615,-2.5617,-2.5619,0,0,0,0,0,0,-2.4851,-2.4873,-2.5059,-2.498,-2.5004,-2.5073,-2.5119,-2.513,-2.5163,-2.5235,-2.5248,-2.5191,-2.5306,-2.5324,-2.5404,-2.5432,-2.5394,-2.5401,-2.5613,-2.5616,-2.5618,-2.5609,0,0,0,0,0,0,-2.4844,-2.4871,-2.4898,-2.498,-2.5008,-2.5126,-2.5121,-2.5134,-2.5175,-2.5177,-2.5258,-2.527,-2.5307,-2.5393,-2.5411,-2.5441,-2.5407,-2.5611,-2.5614,-2.5617,-2.5607,-2.5611,-2.5614,0,0,0,0,0,-2.4835,-2.4889,-2.49,-2.4921,-2.5044,-2.5127,-2.5143,-2.5186,-2.5177,-2.5206,-2.5253,-2.5267,-2.5425,-2.54,-2.5421,-2.5454,-2.5609,-2.5613,-2.5617,-2.5605,-2.561,-2.5614,0,0,0,0,0,0,-2.4808,-2.49,-2.4913,-2.4995,-2.5053,-2.5133,-2.5171,-2.5189,-2.525,-2.5249,-2.5298,-2.5316,-2.5392,-2.5431,-2.5401,-2.5529,-2.5517,-2.5526,-2.5502,-2.5507,-2.551,-2.55,-2.5412,0,0,0,0,0,-2.4811,-2.4871,-2.4949,-2.5013,-2.5042,-2.5101,-2.5139,-2.5167,-2.5229,-2.5253,-2.5306,-2.5365,-2.5429,-2.5469,-2.5531,-2.5612,-2.5631,-2.5645,-2.5648,-2.5651,-2.5658,-2.5706,-2.5714,-2.5632,-2.5632,-2.5632,0,0,-2.4819,-2.4877,-2.4912,-2.5009,-2.5058,-2.5119,-2.5122,-2.5186,-2.5232,-2.5263,-2.5342,-2.5382,-2.5452,-2.5533,-2.5571,-2.5567,-2.5685,-2.5656,-2.5657,-2.5663,-2.5711,-2.5719,-2.5726,-2.5634,-2.5634,-2.5633,0,0,-2.4866,-2.4914,-2.4975,-2.5024,-2.5098,-2.5137,-2.5151,-2.523,-2.5258,-2.5338,-2.5363,-2.5418,-2.5526,-2.5576,-2.5615,-2.5681,-2.5698,-2.57,-2.5719,-2.5765,-2.5772,-2.5778,-2.5805,-2.5813,-2.5706,-2.5706,-2.5706,0,-2.4866,-2.496,-2.5004,-2.5068,-2.5111,-2.5142,-2.5205,-2.5249,-2.5339,-2.5368,-2.5362,-2.55,-2.5548,-2.5643,-2.5659,-2.5689,-2.5708,-2.5692,-2.5768,-2.5774,-2.578,-2.5806,-2.5816,-2.5706,-2.5706,-2.5706,-2.5706,0,-2.4959,-2.5023,-2.5063,-2.5151,-2.5198,-2.526,-2.5314,-2.5356,-2.538,-2.542,-2.5502,-2.5561,-2.5638,-2.5661,-2.5684,-2.576,-2.5756,-2.5758,-2.5748,-2.5788,-2.5813,-2.5823,-2.5706,-2.5706,-2.5706,-2.5706,0,0,-2.4993,-2.5105,-2.5119,-2.516,-2.5244,-2.5295,-2.5359,-2.5435,-2.5471,-2.5531,-2.5588,-2.5679,-2.5683,-2.5727,-2.5756,-2.5796,-2.5848,-2.5794,-2.5796,-2.5804,-2.5938,-2.5938,-2.5949,-2.5859,-2.5861,-2.5862,-2.5934,0,-2.5052,-2.5169,-2.5211,-2.5308,-2.5369,-2.54,-2.5456,-2.5514,-2.5553,-2.5611,-2.5654,-2.5719,-2.5717,-2.5745,-2.5786,-2.5833,-2.5876,-2.5828,-2.5913,-2.5916,-2.5898,-2.5961,-2.5961,-2.6025,-2.5943,-2.5945,-2.5946,0,-2.5137,-2.52,-2.5304,-2.5382,-2.541,-2.546,-2.5533,-2.5588,-2.5654,-2.568,-2.573,-2.5756,-2.5826,-2.5809,-2.5907,-2.5873,-2.591,-2.5939,-2.5942,-2.5954,-2.5935,-2.5977,-2.6047,-2.6057,-2.5962,-2.596,-2.5959,0,-2.5155,-2.5266,-2.5343,-2.5377,-2.5469,-2.5504,-2.5544,-2.561,-2.5653,-2.5717,-2.5746,-2.5816,-2.5855,-2.5909,-2.5954,-2.5938,-2.6048,-2.6035,-2.6073,-2.6072,-2.6097,-2.6095,-2.6176,-2.6116,-2.6116,-2.6115,-2.6115,0,-2.5218,-2.5281,-2.5353,-2.5401,-2.5472,-2.5519,-2.5589,-2.5631,-2.5688,-2.5745,-2.5775,-2.5827,-2.5882,-2.5942,-2.5977,-2.6054,-2.607,-2.6094,-2.6103,-2.6093,-2.6091,-2.612,-2.6118,-2.6118,-2.6118,-2.6117,-2.6117,0,-2.5252,-2.5302,-2.5389,-2.547,-2.5491,-2.5541,-2.561,-2.5658,-2.5698,-2.577,-2.5789,-2.5853,-2.5925,-2.5975,-2.6066,-2.609,-2.6174,-2.6181,-2.6153,-2.6158,-2.6194,-2.6191,-2.6298,-2.6316,-2.6241,-2.6242,-2.6242,0,-2.529,-2.534,-2.5426,-2.5467,-2.5507,-2.5572,-2.5617,-2.5665,-2.571,-2.5791,-2.5829,-2.5903,-2.5966,-2.608,-2.6134,-2.6205,-2.6216,-2.6249,-2.6227,-2.6216,-2.622,-2.6218,-2.6224,-2.6253,-2.6253,-2.6254,-2.6254,0,-2.5354,-2.5377,-2.5441,-2.5514,-2.5567,-2.5627,-2.5686,-2.5718,-2.5776,-2.5826,-2.5901,-2.5949,-2.6044,-2.6119,-2.6195,-2.6237,-2.6256,-2.626,-2.6274,-2.6265,-2.6248,-2.6261,-2.6165,-2.6258,-2.6258,-2.6258,-2.6257,-2.6257,-2.5394,-2.544,-2.5509,-2.558,-2.563,-2.5685,-2.5735,-2.5782,-2.5846,-2.5928,-2.5951,-2.603,-2.6097,-2.6202,-2.6244,-2.6307,-2.6304,-2.6322,-2.6327,-2.6332,-2.6334,-2.6235,-2.632,-2.632,-2.632,-2.632,-2.632,0,-2.5462,-2.5508,-2.5572,-2.5656,-2.5712,-2.5725,-2.5792,-2.5838,-2.5907,-2.5968,-2.6029,-2.6116,-2.6188,-2.6249,-2.6324,-2.6362,-2.6373,-2.6381,-2.638,-2.639,-2.633,-2.6313,-2.6371,-2.6371,-2.6371,-2.6371,-2.6371,-2.6371,-2.5504,-2.5584,-2.5615,-2.5721,-2.5766,-2.5844,-2.5882,-2.5934,-2.5983,-2.6079,-2.614,-2.6179,-2.624,-2.632,-2.6387,-2.6403,-2.6431,-2.6437,-2.6455,-2.6399,-2.6393,-2.6388,-2.6372,-2.6442,-2.6442,-2.651,-2.651,-2.6511]},{"header":{"parameterUnit":"m.s-1","parameterCategory":1,"la1":30.2991,"la2":30.254,"lo1":-89.0895,"lo2":-89.0444,"dx":0.0017,"dy":0.0017,"nx":28,"ny":28,"refTime":"2022-11-07T09:00:00:Z","depth":0,"parameterNumber":3,"parameterNumberName":"V-component_of_WINDS"},"data":[0,0,0,0,0,0,0,0,0,0,0,0,0,0,0,0,0,0,0,0,0,0,0,0,0,0,0,0,0,0,0,0,0,0,0,0,0,0,0,0,0,0,0,0,0,0,0,0,0,0,0,0,0,0,0,0,0,0,-1.3382,-1.3381,0,-1.3297,-1.3296,-1.3295,-1.3214,-1.3213,-1.3212,-1.3211,-1.3124,-1.3123,-1.3121,0,0,0,0,0,0,0,0,0,0,0,0,0,-1.3474,-1.3473,-1.3382,-1.3381,-1.338,-1.3297,-1.3296,-1.3295,-1.3214,-1.3213,-1.3211,-1.321,-1.3124,-1.3123,-1.3121,0,0,0,0,0,0,0,0,0,0,0,0,0,-1.3416,-1.3472,-1.3383,-1.333,-1.3324,-1.3298,-1.3296,-1.3295,-1.3214,-1.3213,-1.3211,-1.321,-1.3125,-1.3123,-1.3121,-1.314,0,0,-1.3115,-1.3114,0,0,0,0,0,0,0,0,-1.3419,-1.3413,-1.3339,-1.3333,-1.3327,-1.3264,-1.3296,-1.3243,-1.3215,-1.3256,-1.3211,-1.3209,-1.3172,-1.3166,-1.3153,-1.3135,-1.3132,-1.3115,-1.3113,-1.3112,-1.3112,0,0,0,0,0,0,0,-1.3424,-1.3416,-1.3349,-1.3338,-1.3331,-1.331,-1.33,-1.3286,-1.3224,-1.3252,-1.3246,-1.3237,-1.3168,-1.3156,-1.3151,-1.313,-1.3115,-1.3113,-1.3112,-1.3111,-1.3122,-1.3124,0,0,0,0,0,0,-1.3436,-1.342,-1.3351,-1.3346,-1.337,-1.331,-1.3299,-1.3286,-1.3224,-1.3213,-1.3239,-1.3234,-1.316,-1.3153,-1.3147,-1.3165,-1.3112,-1.3111,-1.3109,-1.3121,-1.3123,-1.3124,0,0,0,0,0,0,-1.3438,-1.343,-1.3355,-1.3381,-1.337,-1.331,-1.3297,-1.3285,-1.3272,-1.3213,-1.3202,-1.3237,-1.3158,-1.315,-1.3142,-1.3161,-1.311,-1.3108,-1.3119,-1.3122,-1.3124,-1.32,0,0,0,0,0,0,-1.3441,-1.3432,-1.3438,-1.3382,-1.3369,-1.3351,-1.3298,-1.3285,-1.3269,-1.3262,-1.3209,-1.3198,-1.3156,-1.3145,-1.314,-1.3157,-1.3106,-1.3117,-1.312,-1.3123,-1.3195,-1.3204,-1.3212,0,0,0,0,0,-1.3445,-1.3464,-1.3439,-1.3431,-1.3376,-1.3352,-1.3345,-1.3296,-1.3271,-1.3277,-1.3239,-1.32,-1.3159,-1.3145,-1.3138,-1.3155,-1.3116,-1.3119,-1.3123,-1.3192,-1.3203,-1.3212,0,0,0,0,0,0,-1.3524,-1.3455,-1.3428,-1.3429,-1.3397,-1.3339,-1.3345,-1.331,-1.3284,-1.3279,-1.3219,-1.3208,-1.3206,-1.3179,-1.3165,-1.3169,-1.3132,-1.3134,-1.3187,-1.3197,-1.3205,-1.3212,-1.3105,0,0,0,0,0,-1.3542,-1.3528,-1.3469,-1.3476,-1.3461,-1.3406,-1.3394,-1.3359,-1.3324,-1.331,-1.3271,-1.3238,-1.3218,-1.3206,-1.3184,-1.3191,-1.3178,-1.3199,-1.3207,-1.3214,-1.3217,-1.3218,-1.3227,-1.3136,-1.3136,-1.3136,0,0,-1.3578,-1.3539,-1.3534,-1.3491,-1.3462,-1.3449,-1.3395,-1.3384,-1.3374,-1.3308,-1.3298,-1.3268,-1.3227,-1.3227,-1.3225,-1.3205,-1.3239,-1.3219,-1.3225,-1.3224,-1.3223,-1.3232,-1.3239,-1.3138,-1.3138,-1.3137,0,0,-1.3638,-1.3607,-1.3609,-1.3581,-1.3538,-1.3501,-1.3502,-1.3448,-1.3426,-1.3415,-1.3365,-1.3352,-1.3318,-1.3291,-1.3273,-1.3321,-1.3285,-1.3316,-1.336,-1.3362,-1.3369,-1.3375,-1.3392,-1.3399,-1.3319,-1.3319,-1.3319,0,-1.3689,-1.3668,-1.3615,-1.3606,-1.3589,-1.3528,-1.3529,-1.3505,-1.3457,-1.3446,-1.3424,-1.338,-1.3348,-1.334,-1.3352,-1.3339,-1.3338,-1.3322,-1.3372,-1.3378,-1.3383,-1.3398,-1.3405,-1.3323,-1.3322,-1.3322,-1.3322,0,-1.3732,-1.3718,-1.3725,-1.368,-1.3663,-1.3659,-1.3606,-1.3594,-1.3561,-1.3526,-1.3515,-1.3475,-1.3443,-1.3438,-1.3406,-1.3426,-1.3414,-1.3383,-1.3345,-1.3396,-1.341,-1.3416,-1.3329,-1.3327,-1.3326,-1.3325,0,0,-1.384,-1.3766,-1.3769,-1.3748,-1.3695,-1.3683,-1.3677,-1.3646,-1.3637,-1.3606,-1.3599,-1.3571,-1.3542,-1.3521,-1.3485,-1.3486,-1.3527,-1.3454,-1.3453,-1.347,-1.3546,-1.357,-1.3578,-1.3502,-1.3503,-1.3504,-1.3549,0,-1.3892,-1.3877,-1.3829,-1.3828,-1.3814,-1.3756,-1.375,-1.3717,-1.3684,-1.3667,-1.3631,-1.3612,-1.3575,-1.3562,-1.3561,-1.3522,-1.3542,-1.3518,-1.3495,-1.3495,-1.3507,-1.3585,-1.3611,-1.3656,-1.3555,-1.3555,-1.3556,0,-1.395,-1.3922,-1.392,-1.3868,-1.386,-1.3856,-1.3823,-1.3808,-1.3769,-1.3745,-1.3722,-1.3681,-1.367,-1.3634,-1.3619,-1.3604,-1.3591,-1.3571,-1.3571,-1.3568,-1.3529,-1.3584,-1.3669,-1.3677,-1.3564,-1.3563,-1.3563,0,-1.4029,-1.3991,-1.3985,-1.3969,-1.3907,-1.3905,-1.388,-1.3839,-1.3823,-1.3795,-1.3784,-1.3754,-1.3738,-1.3716,-1.3668,-1.3647,-1.3658,-1.3618,-1.3638,-1.3639,-1.3644,-1.3644,-1.3729,-1.3635,-1.3635,-1.3635,-1.3635,0,-1.4091,-1.4093,-1.402,-1.4016,-1.4016,-1.396,-1.3961,-1.3929,-1.3894,-1.3883,-1.383,-1.3821,-1.3758,-1.3741,-1.3703,-1.3696,-1.3689,-1.367,-1.366,-1.3674,-1.3677,-1.3666,-1.3662,-1.3637,-1.3636,-1.3636,-1.3636,0,-1.418,-1.4132,-1.4121,-1.4064,-1.4049,-1.4051,-1.4002,-1.3996,-1.3959,-1.3946,-1.3939,-1.3882,-1.386,-1.3809,-1.3774,-1.3748,-1.3751,-1.3732,-1.3764,-1.3758,-1.378,-1.3779,-1.3861,-1.3869,-1.3771,-1.3772,-1.3772,0,-1.4224,-1.4223,-1.4165,-1.4154,-1.4131,-1.4113,-1.4097,-1.4041,-1.4026,-1.3981,-1.3981,-1.3954,-1.393,-1.3897,-1.3852,-1.3824,-1.3805,-1.3835,-1.38,-1.3815,-1.3805,-1.3806,-1.3806,-1.3844,-1.3845,-1.3846,-1.3847,0,-1.4306,-1.4281,-1.426,-1.4229,-1.4211,-1.4184,-1.4155,-1.4149,-1.4086,-1.4072,-1.4048,-1.4029,-1.3992,-1.3966,-1.3931,-1.3904,-1.3865,-1.3858,-1.3861,-1.3877,-1.3895,-1.3885,-1.3786,-1.3857,-1.3856,-1.3855,-1.3854,-1.3854,-1.4373,-1.437,-1.4328,-1.4306,-1.4277,-1.4251,-1.4242,-1.4205,-1.4184,-1.415,-1.4118,-1.4097,-1.4057,-1.4006,-1.3982,-1.3965,-1.3945,-1.395,-1.3951,-1.3953,-1.3959,-1.3897,-1.3958,-1.3958,-1.3957,-1.3957,-1.3957,0,-1.4452,-1.4423,-1.4402,-1.4363,-1.4345,-1.4309,-1.4274,-1.4261,-1.4244,-1.421,-1.4187,-1.416,-1.4134,-1.4087,-1.4057,-1.4052,-1.4034,-1.4047,-1.4047,-1.4041,-1.3979,-1.3979,-1.4062,-1.4062,-1.4062,-1.4062,-1.4062,-1.4062,-1.4491,-1.4484,-1.4455,-1.4432,-1.4402,-1.4382,-1.4365,-1.434,-1.4313,-1.4284,-1.4263,-1.4232,-1.4193,-1.4159,-1.4134,-1.4121,-1.4112,-1.4131,-1.4112,-1.4055,-1.4045,-1.4036,-1.4036,-1.413,-1.413,-1.4176,-1.4176,-1.4177]}]]